Year,Month,Day,Hour,Minute,Value (Times are PST for temperature in C)
2010,04,16,00,00,6.80
2010,04,16,00,01,6.80
2010,04,16,00,02,6.80
2010,04,16,00,03,6.90
2010,04,16,00,04,6.90
2010,04,16,00,05,6.90
2010,04,16,00,06,6.90
2010,04,16,00,07,6.90
2010,04,16,00,08,6.90
2010,04,16,00,09,6.80
2010,04,16,00,10,6.80
2010,04,16,00,11,6.80
2010,04,16,00,12,6.80
2010,04,16,00,13,6.80
2010,04,16,00,14,6.80
2010,04,16,00,15,6.80
2010,04,16,00,16,6.80
2010,04,16,00,17,6.80
2010,04,16,00,18,6.70
2010,04,16,00,19,6.70
2010,04,16,00,20,6.70
2010,04,16,00,21,6.70
2010,04,16,00,22,6.70
2010,04,16,00,23,6.70
2010,04,16,00,24,6.60
2010,04,16,00,25,6.60
2010,04,16,00,26,6.60
2010,04,16,00,27,6.60
2010,04,16,00,28,6.60
2010,04,16,00,29,6.50
2010,04,16,00,30,6.40
2010,04,16,00,31,6.40
2010,04,16,00,32,6.30
2010,04,16,00,33,6.30
2010,04,16,00,34,6.30
2010,04,16,00,35,6.40
2010,04,16,00,36,6.40
2010,04,16,00,37,6.40
2010,04,16,00,38,6.40
2010,04,16,00,39,6.40
2010,04,16,00,40,6.30
2010,04,16,00,41,6.30
2010,04,16,00,42,6.30
2010,04,16,00,43,6.30
2010,04,16,00,44,6.30
2010,04,16,00,45,6.30
2010,04,16,00,46,6.30
2010,04,16,00,47,6.30
2010,04,16,00,48,6.40
2010,04,16,00,49,6.40
2010,04,16,00,50,6.40
2010,04,16,00,51,6.40
2010,04,16,00,52,6.40
2010,04,16,00,53,6.40
2010,04,16,00,54,6.30
2010,04,16,00,55,6.30
2010,04,16,00,56,6.30
2010,04,16,00,57,6.30
2010,04,16,00,58,6.30
2010,04,16,00,59,6.30
2010,04,16,01,00,6.30
2010,04,16,01,01,6.30
2010,04,16,01,02,6.30
2010,04,16,01,03,6.20
2010,04,16,01,04,6.20
2010,04,16,01,05,6.20
2010,04,16,01,06,6.20
2010,04,16,01,07,6.20
2010,04,16,01,08,6.20
2010,04,16,01,09,6.20
2010,04,16,01,10,6.20
2010,04,16,01,11,6.10
2010,04,16,01,12,6.10
2010,04,16,01,13,6.00
2010,04,16,01,14,6.00
2010,04,16,01,15,6.00
2010,04,16,01,16,6.00
2010,04,16,01,17,6.00
2010,04,16,01,18,6.10
2010,04,16,01,19,6.00
2010,04,16,01,20,6.00
2010,04,16,01,21,6.00
2010,04,16,01,22,6.00
2010,04,16,01,23,6.00
2010,04,16,01,24,6.00
2010,04,16,01,25,6.00
2010,04,16,01,26,6.00
2010,04,16,01,27,6.00
2010,04,16,01,28,6.10
2010,04,16,01,29,6.10
2010,04,16,01,30,6.20
2010,04,16,01,31,6.20
2010,04,16,01,32,6.20
2010,04,16,01,33,6.20
2010,04,16,01,34,6.20
2010,04,16,01,35,6.20
2010,04,16,01,36,6.20
2010,04,16,01,37,6.20
2010,04,16,01,38,6.30
2010,04,16,01,39,6.30
2010,04,16,01,40,6.40
2010,04,16,01,41,6.40
2010,04,16,01,42,6.40
2010,04,16,01,43,6.40
2010,04,16,01,44,6.40
2010,04,16,01,45,6.40
2010,04,16,01,46,6.40
2010,04,16,01,47,6.40
2010,04,16,01,48,6.40
2010,04,16,01,49,6.30
2010,04,16,01,50,6.30
2010,04,16,01,51,6.30
2010,04,16,01,52,6.30
2010,04,16,01,53,6.40
2010,04,16,01,54,6.50
2010,04,16,01,55,6.60
2010,04,16,01,56,6.60
2010,04,16,01,57,6.60
2010,04,16,01,58,6.70
2010,04,16,01,59,6.60
2010,04,16,02,00,6.60
2010,04,16,02,01,6.50
2010,04,16,02,02,6.40
2010,04,16,02,03,6.30
2010,04,16,02,04,6.20
2010,04,16,02,05,6.10
2010,04,16,02,06,6.10
2010,04,16,02,07,6.00
2010,04,16,02,08,5.90
2010,04,16,02,09,5.90
2010,04,16,02,10,5.80
2010,04,16,02,11,5.70
2010,04,16,02,12,5.70
2010,04,16,02,13,5.70
2010,04,16,02,14,5.60
2010,04,16,02,15,5.60
2010,04,16,02,16,5.60
2010,04,16,02,17,5.60
2010,04,16,02,18,5.50
2010,04,16,02,19,5.50
2010,04,16,02,20,5.50
2010,04,16,02,21,5.40
2010,04,16,02,22,5.40
2010,04,16,02,23,5.50
2010,04,16,02,24,5.60
2010,04,16,02,25,5.70
2010,04,16,02,26,5.70
2010,04,16,02,27,5.70
2010,04,16,02,28,5.70
2010,04,16,02,29,5.70
2010,04,16,02,30,5.70
2010,04,16,02,31,5.70
2010,04,16,02,32,5.70
2010,04,16,02,33,5.80
2010,04,16,02,34,5.90
2010,04,16,02,35,6.00
2010,04,16,02,36,6.00
2010,04,16,02,37,6.00
2010,04,16,02,38,5.90
2010,04,16,02,39,5.90
2010,04,16,02,40,5.90
2010,04,16,02,41,5.90
2010,04,16,02,42,5.90
2010,04,16,02,43,6.00
2010,04,16,02,44,6.10
2010,04,16,02,45,6.20
2010,04,16,02,46,6.20
2010,04,16,02,47,6.20
2010,04,16,02,48,6.20
2010,04,16,02,49,6.20
2010,04,16,02,50,6.20
2010,04,16,02,51,6.30
2010,04,16,02,52,6.30
2010,04,16,02,53,6.30
2010,04,16,02,54,6.30
2010,04,16,02,55,6.30
2010,04,16,02,56,6.40
2010,04,16,02,57,6.40
2010,04,16,02,58,6.40
2010,04,16,02,59,6.40
2010,04,16,03,00,6.30
2010,04,16,03,01,6.30
2010,04,16,03,02,6.30
2010,04,16,03,03,6.20
2010,04,16,03,04,6.20
2010,04,16,03,05,6.20
2010,04,16,03,06,6.20
2010,04,16,03,07,6.20
2010,04,16,03,08,6.20
2010,04,16,03,09,6.20
2010,04,16,03,10,6.20
2010,04,16,03,11,6.20
2010,04,16,03,12,6.20
2010,04,16,03,13,6.20
2010,04,16,03,14,6.30
2010,04,16,03,15,6.40
2010,04,16,03,16,6.40
2010,04,16,03,17,6.50
2010,04,16,03,18,6.60
2010,04,16,03,19,6.60
2010,04,16,03,20,6.70
2010,04,16,03,21,6.70
2010,04,16,03,22,6.70
2010,04,16,03,23,6.70
2010,04,16,03,24,6.70
2010,04,16,03,25,6.70
2010,04,16,03,26,6.70
2010,04,16,03,27,6.60
2010,04,16,03,28,6.50
2010,04,16,03,29,6.40
2010,04,16,03,30,6.30
2010,04,16,03,31,6.30
2010,04,16,03,32,6.20
2010,04,16,03,33,6.30
2010,04,16,03,34,6.40
2010,04,16,03,35,6.40
2010,04,16,03,36,6.50
2010,04,16,03,37,6.60
2010,04,16,03,38,6.70
2010,04,16,03,39,6.70
2010,04,16,03,40,6.70
2010,04,16,03,41,6.70
2010,04,16,03,42,6.70
2010,04,16,03,43,6.60
2010,04,16,03,44,6.60
2010,04,16,03,45,6.60
2010,04,16,03,46,6.60
2010,04,16,03,47,6.60
2010,04,16,03,48,6.70
2010,04,16,03,49,6.70
2010,04,16,03,50,6.70
2010,04,16,03,51,6.70
2010,04,16,03,52,6.70
2010,04,16,03,53,6.80
2010,04,16,03,54,6.80
2010,04,16,03,55,6.70
2010,04,16,03,56,6.70
2010,04,16,03,57,6.70
2010,04,16,03,58,6.60
2010,04,16,03,59,6.60
2010,04,16,04,00,6.60
2010,04,16,04,01,6.60
2010,04,16,04,02,6.60
2010,04,16,04,03,6.60
2010,04,16,04,04,6.60
2010,04,16,04,05,6.60
2010,04,16,04,06,6.60
2010,04,16,04,07,6.70
2010,04,16,04,08,6.70
2010,04,16,04,09,6.70
2010,04,16,04,10,6.80
2010,04,16,04,11,6.80
2010,04,16,04,12,6.80
2010,04,16,04,13,6.90
2010,04,16,04,14,6.90
2010,04,16,04,15,6.90
2010,04,16,04,16,6.90
2010,04,16,04,17,6.90
2010,04,16,04,18,6.90
2010,04,16,04,19,6.90
2010,04,16,04,20,6.90
2010,04,16,04,21,6.90
2010,04,16,04,22,6.90
2010,04,16,04,23,6.90
2010,04,16,04,24,6.90
2010,04,16,04,25,6.80
2010,04,16,04,26,6.80
2010,04,16,04,27,6.90
2010,04,16,04,28,7.00
2010,04,16,04,29,7.10
2010,04,16,04,30,7.30
2010,04,16,04,31,7.30
2010,04,16,04,32,7.40
2010,04,16,04,33,7.40
2010,04,16,04,34,7.40
2010,04,16,04,35,7.40
2010,04,16,04,36,7.40
2010,04,16,04,37,7.40
2010,04,16,04,38,7.40
2010,04,16,04,39,7.40
2010,04,16,04,40,7.40
2010,04,16,04,41,7.50
2010,04,16,04,42,7.50
2010,04,16,04,43,7.50
2010,04,16,04,44,7.60
2010,04,16,04,45,7.60
2010,04,16,04,46,7.60
2010,04,16,04,47,7.70
2010,04,16,04,48,7.70
2010,04,16,04,49,7.80
2010,04,16,04,50,7.80
2010,04,16,04,51,7.80
2010,04,16,04,52,7.80
2010,04,16,04,53,7.80
2010,04,16,04,54,7.80
2010,04,16,04,55,7.80
2010,04,16,04,56,7.90
2010,04,16,04,57,7.90
2010,04,16,04,58,7.90
2010,04,16,04,59,7.90
2010,04,16,05,00,8.00
2010,04,16,05,01,8.00
2010,04,16,05,02,8.00
2010,04,16,05,03,8.00
2010,04,16,05,04,8.00
2010,04,16,05,05,8.00
2010,04,16,05,06,8.00
2010,04,16,05,07,8.00
2010,04,16,05,08,8.00
2010,04,16,05,09,8.00
2010,04,16,05,10,8.10
2010,04,16,05,11,8.10
2010,04,16,05,12,8.10
2010,04,16,05,13,8.10
2010,04,16,05,14,8.10
2010,04,16,05,15,8.20
2010,04,16,05,16,8.20
2010,04,16,05,17,8.20
2010,04,16,05,18,8.20
2010,04,16,05,19,8.20
2010,04,16,05,20,8.20
2010,04,16,05,21,8.30
2010,04,16,05,22,8.30
2010,04,16,05,23,8.30
2010,04,16,05,24,8.40
2010,04,16,05,25,8.40
2010,04,16,05,26,8.50
2010,04,16,05,27,8.50
2010,04,16,05,28,8.50
2010,04,16,05,29,8.60
2010,04,16,05,30,8.60
2010,04,16,05,31,8.60
2010,04,16,05,32,8.70
2010,04,16,05,33,8.70
2010,04,16,05,34,8.70
2010,04,16,05,35,8.70
2010,04,16,05,36,8.70
2010,04,16,05,37,8.70
2010,04,16,05,38,8.80
2010,04,16,05,39,8.80
2010,04,16,05,40,8.80
2010,04,16,05,41,8.80
2010,04,16,05,42,8.80
2010,04,16,05,43,8.90
2010,04,16,05,44,8.90
2010,04,16,05,45,8.90
2010,04,16,05,46,8.90
2010,04,16,05,47,8.90
2010,04,16,05,48,8.90
2010,04,16,05,49,8.90
2010,04,16,05,50,8.90
2010,04,16,05,51,8.90
2010,04,16,05,52,8.90
2010,04,16,05,53,8.90
2010,04,16,05,54,8.90
2010,04,16,05,55,8.90
2010,04,16,05,56,8.90
2010,04,16,05,57,8.90
2010,04,16,05,58,8.90
2010,04,16,05,59,8.90
2010,04,16,06,00,8.90
2010,04,16,06,01,8.80
2010,04,16,06,02,8.80
2010,04,16,06,03,8.80
2010,04,16,06,04,8.80
2010,04,16,06,05,8.80
2010,04,16,06,06,8.80
2010,04,16,06,07,8.80
2010,04,16,06,08,8.80
2010,04,16,06,09,8.80
2010,04,16,06,10,8.80
2010,04,16,06,11,8.70
2010,04,16,06,12,8.70
2010,04,16,06,13,8.70
2010,04,16,06,14,8.70
2010,04,16,06,15,8.70
2010,04,16,06,16,8.60
2010,04,16,06,17,8.60
2010,04,16,06,18,8.50
2010,04,16,06,19,8.50
2010,04,16,06,20,8.50
2010,04,16,06,21,8.50
2010,04,16,06,22,8.50
2010,04,16,06,23,8.50
2010,04,16,06,24,8.40
2010,04,16,06,25,8.40
2010,04,16,06,26,8.40
2010,04,16,06,27,8.40
2010,04,16,06,28,8.30
2010,04,16,06,29,8.30
2010,04,16,06,30,8.20
2010,04,16,06,31,8.20
2010,04,16,06,32,8.10
2010,04,16,06,33,8.10
2010,04,16,06,34,8.00
2010,04,16,06,35,7.90
2010,04,16,06,36,7.80
2010,04,16,06,37,7.70
2010,04,16,06,38,7.60
2010,04,16,06,39,7.60
2010,04,16,06,40,7.50
2010,04,16,06,41,7.50
2010,04,16,06,42,7.50
2010,04,16,06,43,7.40
2010,04,16,06,44,7.50
2010,04,16,06,45,7.50
2010,04,16,06,46,7.50
2010,04,16,06,47,7.50
2010,04,16,06,48,7.40
2010,04,16,06,49,7.40
2010,04,16,06,50,7.30
2010,04,16,06,51,7.30
2010,04,16,06,52,7.30
2010,04,16,06,53,7.30
2010,04,16,06,54,7.40
2010,04,16,06,55,7.40
2010,04,16,06,56,7.50
2010,04,16,06,57,7.50
2010,04,16,06,58,7.50
2010,04,16,06,59,7.40
2010,04,16,07,00,7.40
2010,04,16,07,01,7.40
2010,04,16,07,02,7.40
2010,04,16,07,03,7.50
2010,04,16,07,04,7.50
2010,04,16,07,05,7.50
2010,04,16,07,06,7.60
2010,04,16,07,07,7.60
2010,04,16,07,08,7.70
2010,04,16,07,09,7.70
2010,04,16,07,10,7.70
2010,04,16,07,11,7.70
2010,04,16,07,12,7.80
2010,04,16,07,13,7.80
2010,04,16,07,14,7.80
2010,04,16,07,15,7.80
2010,04,16,07,16,7.80
2010,04,16,07,17,7.80
2010,04,16,07,18,7.80
2010,04,16,07,19,7.90
2010,04,16,07,20,7.90
2010,04,16,07,21,7.90
2010,04,16,07,22,8.00
2010,04,16,07,23,8.00
2010,04,16,07,24,8.00
2010,04,16,07,25,8.00
2010,04,16,07,26,8.10
2010,04,16,07,27,8.10
2010,04,16,07,28,8.10
2010,04,16,07,29,8.20
2010,04,16,07,30,8.20
2010,04,16,07,31,8.20
2010,04,16,07,32,8.20
2010,04,16,07,33,8.20
2010,04,16,07,34,8.20
2010,04,16,07,35,8.30
2010,04,16,07,36,8.30
2010,04,16,07,37,8.40
2010,04,16,07,38,8.50
2010,04,16,07,39,8.50
2010,04,16,07,40,8.60
2010,04,16,07,41,8.60
2010,04,16,07,42,8.60
2010,04,16,07,43,8.70
2010,04,16,07,44,8.70
2010,04,16,07,45,8.60
2010,04,16,07,46,8.60
2010,04,16,07,47,8.60
2010,04,16,07,48,8.60
2010,04,16,07,49,8.60
2010,04,16,07,50,8.60
2010,04,16,07,51,8.60
2010,04,16,07,52,8.60
2010,04,16,07,53,8.60
2010,04,16,07,54,8.70
2010,04,16,07,55,8.70
2010,04,16,07,56,8.70
2010,04,16,07,57,8.70
2010,04,16,07,58,8.70
2010,04,16,07,59,8.70
2010,04,16,08,00,8.70
2010,04,16,08,01,8.70
2010,04,16,08,02,8.70
2010,04,16,08,03,8.70
2010,04,16,08,04,8.60
2010,04,16,08,05,8.60
2010,04,16,08,06,8.60
2010,04,16,08,07,8.60
2010,04,16,08,08,8.60
2010,04,16,08,09,8.60
2010,04,16,08,10,8.60
2010,04,16,08,11,8.60
2010,04,16,08,12,8.60
2010,04,16,08,13,8.60
2010,04,16,08,14,8.60
2010,04,16,08,15,8.70
2010,04,16,08,16,8.70
2010,04,16,08,17,8.70
2010,04,16,08,18,8.70
2010,04,16,08,19,8.70
2010,04,16,08,20,8.70
2010,04,16,08,21,8.70
2010,04,16,08,22,8.70
2010,04,16,08,23,8.70
2010,04,16,08,24,8.70
2010,04,16,08,25,8.70
2010,04,16,08,26,8.70
2010,04,16,08,27,8.70
2010,04,16,08,28,8.70
2010,04,16,08,29,8.80
2010,04,16,08,30,8.80
2010,04,16,08,31,8.80
2010,04,16,08,32,8.80
2010,04,16,08,33,8.90
2010,04,16,08,34,8.90
2010,04,16,08,35,8.90
2010,04,16,08,36,8.90
2010,04,16,08,37,8.90
2010,04,16,08,38,9.00
2010,04,16,08,39,9.00
2010,04,16,08,40,9.00
2010,04,16,08,41,9.00
2010,04,16,08,42,9.00
2010,04,16,08,43,9.00
2010,04,16,08,44,9.10
2010,04,16,08,45,9.10
2010,04,16,08,46,9.10
2010,04,16,08,47,9.20
2010,04,16,08,48,9.20
2010,04,16,08,49,9.20
2010,04,16,08,50,9.20
2010,04,16,08,51,9.10
2010,04,16,08,52,9.10
2010,04,16,08,53,9.10
2010,04,16,08,54,9.20
2010,04,16,08,55,9.20
2010,04,16,08,56,9.20
2010,04,16,08,57,9.20
2010,04,16,08,58,9.20
2010,04,16,08,59,9.20
2010,04,16,09,00,9.20
2010,04,16,09,01,9.20
2010,04,16,09,02,9.20
2010,04,16,09,03,9.20
2010,04,16,09,04,9.20
2010,04,16,09,05,9.20
2010,04,16,09,06,9.20
2010,04,16,09,07,9.20
2010,04,16,09,08,9.20
2010,04,16,09,09,9.20
2010,04,16,09,10,9.20
2010,04,16,09,11,9.20
2010,04,16,09,12,9.20
2010,04,16,09,13,9.30
2010,04,16,09,14,9.30
2010,04,16,09,15,9.30
2010,04,16,09,16,9.40
2010,04,16,09,17,9.40
2010,04,16,09,18,9.50
2010,04,16,09,19,9.50
2010,04,16,09,20,9.50
2010,04,16,09,21,9.60
2010,04,16,09,22,9.60
2010,04,16,09,23,9.50
2010,04,16,09,24,9.50
2010,04,16,09,25,9.50
2010,04,16,09,26,9.50
2010,04,16,09,27,9.40
2010,04,16,09,28,9.50
2010,04,16,09,29,9.40
2010,04,16,09,30,9.50
2010,04,16,09,31,9.50
2010,04,16,09,32,9.50
2010,04,16,09,33,9.40
2010,04,16,09,34,9.40
2010,04,16,09,35,9.50
2010,04,16,09,36,9.50
2010,04,16,09,37,9.50
2010,04,16,09,38,9.60
2010,04,16,09,39,9.70
2010,04,16,09,40,9.70
2010,04,16,09,41,9.80
2010,04,16,09,42,9.90
2010,04,16,09,43,9.90
2010,04,16,09,44,9.90
2010,04,16,09,45,10.00
2010,04,16,09,46,10.10
2010,04,16,09,47,10.20
2010,04,16,09,48,10.20
2010,04,16,09,49,10.30
2010,04,16,09,50,10.30
2010,04,16,09,51,10.40
2010,04,16,09,52,10.40
2010,04,16,09,53,10.40
2010,04,16,09,54,10.40
2010,04,16,09,55,10.50
2010,04,16,09,56,10.60
2010,04,16,09,57,10.60
2010,04,16,09,58,10.60
2010,04,16,09,59,10.60
2010,04,16,10,00,10.60
2010,04,16,10,01,10.60
2010,04,16,10,02,10.60
2010,04,16,10,03,10.70
2010,04,16,10,04,10.70
2010,04,16,10,05,10.70
2010,04,16,10,06,10.80
2010,04,16,10,07,10.80
2010,04,16,10,08,10.90
2010,04,16,10,09,10.90
2010,04,16,10,10,10.90
2010,04,16,10,11,10.90
2010,04,16,10,12,10.90
2010,04,16,10,13,10.90
2010,04,16,10,14,10.80
2010,04,16,10,15,10.80
2010,04,16,10,16,10.80
2010,04,16,10,17,10.80
2010,04,16,10,18,10.80
2010,04,16,10,19,10.90
2010,04,16,10,20,10.90
2010,04,16,10,21,10.90
2010,04,16,10,22,10.90
2010,04,16,10,23,10.90
2010,04,16,10,24,10.80
2010,04,16,10,25,10.80
2010,04,16,10,26,10.80
2010,04,16,10,27,10.90
2010,04,16,10,28,10.90
2010,04,16,10,29,11.00
2010,04,16,10,30,11.10
2010,04,16,10,31,11.20
2010,04,16,10,32,11.20
2010,04,16,10,33,11.30
2010,04,16,10,34,11.30
2010,04,16,10,35,11.20
2010,04,16,10,36,11.20
2010,04,16,10,37,11.20
2010,04,16,10,38,11.20
2010,04,16,10,39,11.20
2010,04,16,10,40,11.20
2010,04,16,10,41,11.30
2010,04,16,10,42,11.30
2010,04,16,10,43,11.30
2010,04,16,10,44,11.40
2010,04,16,10,45,11.40
2010,04,16,10,46,11.40
2010,04,16,10,47,11.50
2010,04,16,10,48,11.60
2010,04,16,10,49,11.60
2010,04,16,10,50,11.60
2010,04,16,10,51,11.70
2010,04,16,10,52,11.60
2010,04,16,10,53,11.60
2010,04,16,10,54,11.60
2010,04,16,10,55,11.60
2010,04,16,10,56,11.60
2010,04,16,10,57,11.70
2010,04,16,10,58,11.70
2010,04,16,10,59,11.80
2010,04,16,11,00,11.90
2010,04,16,11,01,12.00
2010,04,16,11,02,12.10
2010,04,16,11,03,12.10
2010,04,16,11,04,12.20
2010,04,16,11,05,12.20
2010,04,16,11,06,12.20
2010,04,16,11,07,12.10
2010,04,16,11,08,12.10
2010,04,16,11,09,12.00
2010,04,16,11,10,11.90
2010,04,16,11,11,11.90
2010,04,16,11,12,11.90
2010,04,16,11,13,11.90
2010,04,16,11,14,11.90
2010,04,16,11,15,11.90
2010,04,16,11,16,12.00
2010,04,16,11,17,12.00
2010,04,16,11,18,12.10
2010,04,16,11,19,12.00
2010,04,16,11,20,12.00
2010,04,16,11,21,12.00
2010,04,16,11,22,12.00
2010,04,16,11,23,12.10
2010,04,16,11,24,12.20
2010,04,16,11,25,12.20
2010,04,16,11,26,12.30
2010,04,16,11,27,12.30
2010,04,16,11,28,12.30
2010,04,16,11,29,12.30
2010,04,16,11,30,12.50
2010,04,16,11,31,12.50
2010,04,16,11,32,12.60
2010,04,16,11,33,12.70
2010,04,16,11,34,12.70
2010,04,16,11,35,12.70
2010,04,16,11,36,12.60
2010,04,16,11,37,12.60
2010,04,16,11,38,12.60
2010,04,16,11,39,12.60
2010,04,16,11,40,12.50
2010,04,16,11,41,12.50
2010,04,16,11,42,12.40
2010,04,16,11,43,12.40
2010,04,16,11,44,12.40
2010,04,16,11,45,12.40
2010,04,16,11,46,12.50
2010,04,16,11,47,12.50
2010,04,16,11,48,12.50
2010,04,16,11,49,12.50
2010,04,16,11,50,12.50
2010,04,16,11,51,12.50
2010,04,16,11,52,12.50
2010,04,16,11,53,12.50
2010,04,16,11,54,12.50
2010,04,16,11,55,12.50
2010,04,16,11,56,12.50
2010,04,16,11,57,12.60
2010,04,16,11,58,12.60
2010,04,16,11,59,12.60
2010,04,16,12,00,12.60
2010,04,16,12,01,12.60
2010,04,16,12,02,12.70
2010,04,16,12,03,12.70
2010,04,16,12,04,12.80
2010,04,16,12,05,12.80
2010,04,16,12,06,12.80
2010,04,16,12,07,12.90
2010,04,16,12,08,12.90
2010,04,16,12,09,12.80
2010,04,16,12,10,12.80
2010,04,16,12,11,12.80
2010,04,16,12,12,12.80
2010,04,16,12,13,12.80
2010,04,16,12,14,12.80
2010,04,16,12,15,12.70
2010,04,16,12,16,12.70
2010,04,16,12,17,12.60
2010,04,16,12,18,12.50
2010,04,16,12,19,12.50
2010,04,16,12,20,12.40
2010,04,16,12,21,12.40
2010,04,16,12,22,12.30
2010,04,16,12,23,12.30
2010,04,16,12,24,12.30
2010,04,16,12,25,12.30
2010,04,16,12,26,12.20
2010,04,16,12,27,12.10
2010,04,16,12,28,12.10
2010,04,16,12,29,12.20
2010,04,16,12,30,12.20
2010,04,16,12,31,12.30
2010,04,16,12,32,12.30
2010,04,16,12,33,12.30
2010,04,16,12,34,12.30
2010,04,16,12,35,12.20
2010,04,16,12,36,12.20
2010,04,16,12,37,12.20
2010,04,16,12,38,12.10
2010,04,16,12,39,12.00
2010,04,16,12,40,11.80
2010,04,16,12,41,11.80
2010,04,16,12,42,11.70
2010,04,16,12,43,11.70
2010,04,16,12,44,11.70
2010,04,16,12,45,11.80
2010,04,16,12,46,11.80
2010,04,16,12,47,11.80
2010,04,16,12,48,12.00
2010,04,16,12,49,12.00
2010,04,16,12,50,12.10
2010,04,16,12,51,12.30
2010,04,16,12,52,12.30
2010,04,16,12,53,12.30
2010,04,16,12,54,12.30
2010,04,16,12,55,12.30
2010,04,16,12,56,12.30
2010,04,16,12,57,12.40
2010,04,16,12,58,12.40
2010,04,16,12,59,12.50
2010,04,16,13,00,12.50
2010,04,16,13,01,12.60
2010,04,16,13,02,12.70
2010,04,16,13,03,12.80
2010,04,16,13,04,12.80
2010,04,16,13,05,12.80
2010,04,16,13,06,12.80
2010,04,16,13,07,12.80
2010,04,16,13,08,12.80
2010,04,16,13,09,12.80
2010,04,16,13,10,12.80
2010,04,16,13,11,12.80
2010,04,16,13,12,12.80
2010,04,16,13,13,12.90
2010,04,16,13,14,13.00
2010,04,16,13,15,13.10
2010,04,16,13,16,13.20
2010,04,16,13,17,13.30
2010,04,16,13,18,13.30
2010,04,16,13,19,13.30
2010,04,16,13,20,13.30
2010,04,16,13,21,13.30
2010,04,16,13,22,13.30
2010,04,16,13,23,13.30
2010,04,16,13,24,13.30
2010,04,16,13,25,13.30
2010,04,16,13,26,13.30
2010,04,16,13,27,13.30
2010,04,16,13,28,13.30
2010,04,16,13,29,13.30
2010,04,16,13,30,13.50
2010,04,16,13,31,13.60
2010,04,16,13,32,13.70
2010,04,16,13,33,13.80
2010,04,16,13,34,13.80
2010,04,16,13,35,13.90
2010,04,16,13,36,13.90
2010,04,16,13,37,13.80
2010,04,16,13,38,13.80
2010,04,16,13,39,13.70
2010,04,16,13,40,13.60
2010,04,16,13,41,13.60
2010,04,16,13,42,13.60
2010,04,16,13,43,13.70
2010,04,16,13,44,13.80
2010,04,16,13,45,13.90
2010,04,16,13,46,14.00
2010,04,16,13,47,14.00
2010,04,16,13,48,14.20
2010,04,16,13,49,14.20
2010,04,16,13,50,14.20
2010,04,16,13,51,14.20
2010,04,16,13,52,14.20
2010,04,16,13,53,14.20
2010,04,16,13,54,14.20
2010,04,16,13,55,14.20
2010,04,16,13,56,14.30
2010,04,16,13,57,14.30
2010,04,16,13,58,14.50
2010,04,16,13,59,14.50
2010,04,16,14,00,14.50
2010,04,16,14,01,14.50
2010,04,16,14,02,14.30
2010,04,16,14,03,14.30
2010,04,16,14,04,14.30
2010,04,16,14,05,14.30
2010,04,16,14,06,14.40
2010,04,16,14,07,14.40
2010,04,16,14,08,14.40
2010,04,16,14,09,14.40
2010,04,16,14,10,14.40
2010,04,16,14,11,14.40
2010,04,16,14,12,14.40
2010,04,16,14,13,14.40
2010,04,16,14,14,14.40
2010,04,16,14,15,14.40
2010,04,16,14,16,14.30
2010,04,16,14,17,14.30
2010,04,16,14,18,14.30
2010,04,16,14,19,14.20
2010,04,16,14,20,14.20
2010,04,16,14,21,14.10
2010,04,16,14,22,14.00
2010,04,16,14,23,13.90
2010,04,16,14,24,13.90
2010,04,16,14,25,13.80
2010,04,16,14,26,13.70
2010,04,16,14,27,13.70
2010,04,16,14,28,13.70
2010,04,16,14,29,13.80
2010,04,16,14,30,13.90
2010,04,16,14,31,14.00
2010,04,16,14,32,14.00
2010,04,16,14,33,14.10
2010,04,16,14,34,14.00
2010,04,16,14,35,14.00
2010,04,16,14,36,14.00
2010,04,16,14,37,14.10
2010,04,16,14,38,14.10
2010,04,16,14,39,14.10
2010,04,16,14,40,14.20
2010,04,16,14,41,14.10
2010,04,16,14,42,14.10
2010,04,16,14,43,14.10
2010,04,16,14,44,14.00
2010,04,16,14,45,14.10
2010,04,16,14,46,14.10
2010,04,16,14,47,14.10
2010,04,16,14,48,14.00
2010,04,16,14,49,14.00
2010,04,16,14,50,14.00
2010,04,16,14,51,14.00
2010,04,16,14,52,14.00
2010,04,16,14,53,14.20
2010,04,16,14,54,14.20
2010,04,16,14,55,14.40
2010,04,16,14,56,14.40
2010,04,16,14,57,14.50
2010,04,16,14,58,14.60
2010,04,16,14,59,14.60
2010,04,16,15,00,14.60
2010,04,16,15,01,14.60
2010,04,16,15,02,14.60
2010,04,16,15,03,14.50
2010,04,16,15,04,14.50
2010,04,16,15,05,14.40
2010,04,16,15,06,14.40
2010,04,16,15,07,14.40
2010,04,16,15,08,14.50
2010,04,16,15,09,14.50
2010,04,16,15,10,14.50
2010,04,16,15,11,14.50
2010,04,16,15,12,14.60
2010,04,16,15,13,14.60
2010,04,16,15,14,14.70
2010,04,16,15,15,14.80
2010,04,16,15,16,14.90
2010,04,16,15,17,15.00
2010,04,16,15,18,15.00
2010,04,16,15,19,15.00
2010,04,16,15,20,15.00
2010,04,16,15,21,15.10
2010,04,16,15,22,15.10
2010,04,16,15,23,15.10
2010,04,16,15,24,15.00
2010,04,16,15,25,14.90
2010,04,16,15,26,14.80
2010,04,16,15,27,14.80
2010,04,16,15,28,14.70
2010,04,16,15,29,14.70
2010,04,16,15,30,14.70
2010,04,16,15,31,14.70
2010,04,16,15,32,14.80
2010,04,16,15,33,14.80
2010,04,16,15,34,14.80
2010,04,16,15,35,14.80
2010,04,16,15,36,14.80
2010,04,16,15,37,14.80
2010,04,16,15,38,14.90
2010,04,16,15,39,14.90
2010,04,16,15,40,14.90
2010,04,16,15,41,14.90
2010,04,16,15,42,14.90
2010,04,16,15,43,14.90
2010,04,16,15,44,14.90
2010,04,16,15,45,15.00
2010,04,16,15,46,15.00
2010,04,16,15,47,15.00
2010,04,16,15,48,15.00
2010,04,16,15,49,15.00
2010,04,16,15,50,15.00
2010,04,16,15,51,15.00
2010,04,16,15,52,15.00
2010,04,16,15,53,15.00
2010,04,16,15,54,14.90
2010,04,16,15,55,14.90
2010,04,16,15,56,14.90
2010,04,16,15,57,14.90
2010,04,16,15,58,14.80
2010,04,16,15,59,14.80
2010,04,16,16,00,14.80
2010,04,16,16,01,14.80
2010,04,16,16,02,14.90
2010,04,16,16,03,15.00
2010,04,16,16,04,15.00
2010,04,16,16,05,15.00
2010,04,16,16,06,15.10
2010,04,16,16,07,15.10
2010,04,16,16,08,15.20
2010,04,16,16,09,15.20
2010,04,16,16,10,15.20
2010,04,16,16,11,15.30
2010,04,16,16,12,15.30
2010,04,16,16,13,15.30
2010,04,16,16,14,15.40
2010,04,16,16,15,15.40
2010,04,16,16,16,15.40
2010,04,16,16,17,15.40
2010,04,16,16,18,15.40
2010,04,16,16,19,15.40
2010,04,16,16,20,15.50
2010,04,16,16,21,15.50
2010,04,16,16,22,15.50
2010,04,16,16,23,15.50
2010,04,16,16,24,15.50
2010,04,16,16,25,15.50
2010,04,16,16,26,15.50
2010,04,16,16,27,15.60
2010,04,16,16,28,15.60
2010,04,16,16,29,15.60
2010,04,16,16,30,15.60
2010,04,16,16,31,15.60
2010,04,16,16,32,15.60
2010,04,16,16,33,15.60
2010,04,16,16,34,15.60
2010,04,16,16,35,15.60
2010,04,16,16,36,15.60
2010,04,16,16,37,15.60
2010,04,16,16,38,15.60
2010,04,16,16,39,15.60
2010,04,16,16,40,15.60
2010,04,16,16,41,15.70
2010,04,16,16,42,15.80
2010,04,16,16,43,15.80
2010,04,16,16,44,15.80
2010,04,16,16,45,15.90
2010,04,16,16,46,16.00
2010,04,16,16,47,16.10
2010,04,16,16,48,16.10
2010,04,16,16,49,16.10
2010,04,16,16,50,16.10
2010,04,16,16,51,16.10
2010,04,16,16,52,16.00
2010,04,16,16,53,15.90
2010,04,16,16,54,15.90
2010,04,16,16,55,15.90
2010,04,16,16,56,15.80
2010,04,16,16,57,15.80
2010,04,16,16,58,15.80
2010,04,16,16,59,15.70
2010,04,16,17,00,15.70
2010,04,16,17,01,15.60
2010,04,16,17,02,15.60
2010,04,16,17,03,15.60
2010,04,16,17,04,15.60
2010,04,16,17,05,15.60
2010,04,16,17,06,15.60
2010,04,16,17,07,15.60
2010,04,16,17,08,15.70
2010,04,16,17,09,15.70
2010,04,16,17,10,15.70
2010,04,16,17,11,15.70
2010,04,16,17,12,15.70
2010,04,16,17,13,15.70
2010,04,16,17,14,15.70
2010,04,16,17,15,15.70
2010,04,16,17,16,15.60
2010,04,16,17,17,15.60
2010,04,16,17,18,15.60
2010,04,16,17,19,15.60
2010,04,16,17,20,15.50
2010,04,16,17,21,15.50
2010,04,16,17,22,15.50
2010,04,16,17,23,15.50
2010,04,16,17,24,15.50
2010,04,16,17,25,15.40
2010,04,16,17,26,15.40
2010,04,16,17,27,15.40
2010,04,16,17,28,15.40
2010,04,16,17,29,15.40
2010,04,16,17,30,15.40
2010,04,16,17,31,15.30
2010,04,16,17,32,15.30
2010,04,16,17,33,15.30
2010,04,16,17,34,15.30
2010,04,16,17,35,15.30
2010,04,16,17,36,15.30
2010,04,16,17,37,15.30
2010,04,16,17,38,15.30
2010,04,16,17,39,15.30
2010,04,16,17,40,15.30
2010,04,16,17,41,15.30
2010,04,16,17,42,15.30
2010,04,16,17,43,15.30
2010,04,16,17,44,15.30